| time (UTC) | temp F | wind direction | speed MPH | gust MPH | rain 1hr in | rain 24hr in | rain mn in | humidity % | barometer mb |
| 20260509145037 | 84 | 178 | 8.0 | 15.0 | 0.00 | 0.00 | 0.00 | 67 | 1014.6 |
| 20260509144550 | 84 | 144 | 7.0 | 17.0 | 0.00 | 0.00 | 0.00 | 66 | 1014.6 |
| 20260509144034 | 84 | 150 | 10.0 | 17.0 | 0.00 | 0.00 | 0.00 | 67 | 1014.7 |
| 20260509143535 | 84 | 142 | 6.0 | 12.0 | 0.00 | 0.00 | 0.00 | 70 | 1014.6 |
| 20260509143055 | 83 | 158 | 7.0 | 12.0 | 0.00 | 0.00 | 0.00 | 70 | 1014.6 |
| 20260509142535 | 83 | 166 | 6.0 | 13.0 | 0.00 | 0.00 | 0.00 | 71 | 1014.5 |
| 20260509142036 | 83 | 141 | 6.0 | 15.0 | 0.00 | 0.00 | 0.00 | 71 | 1014.5 |
| 20260509141552 | 83 | 173 | 7.0 | 15.0 | 0.00 | 0.00 | 0.00 | 70 | 1014.5 |
| 20260509141034 | 82 | 151 | 4.0 | 14.0 | 0.00 | 0.00 | 0.00 | 71 | 1014.5 |
| 20260509140533 | 82 | 159 | 6.0 | 13.0 | 0.00 | 0.00 | 0.00 | 74 | 1014.5 |
| 20260509140058 | 81 | 155 | 5.0 | 13.0 | 0.00 | 0.00 | 0.00 | 75 | 1014.5 |
| 20260509135536 | 81 | 170 | 5.0 | 11.0 | 0.00 | 0.00 | 0.00 | 77 | 1014.7 |
| 20260509135038 | 80 | 166 | 4.0 | 9.0 | 0.00 | 0.00 | 0.00 | 79 | 1014.6 |
| 20260509134542 | 79 | 171 | 5.0 | 9.0 | 0.00 | 0.00 | 0.00 | 80 | 1014.6 |
| 20260509134035 | 79 | 197 | 5.0 | 9.0 | 0.00 | 0.00 | 0.00 | 82 | 1014.6 |
| 20260509133535 | 78 | 165 | 5.0 | 9.0 | 0.00 | 0.00 | 0.00 | 84 | 1014.6 |
| 20260509133045 | 78 | 125 | 4.0 | 9.0 | 0.00 | 0.00 | 0.00 | 85 | 1014.5 |
| 20260509132535 | 77 | 123 | 3.0 | 9.0 | 0.00 | 0.00 | 0.00 | 86 | 1014.6 |
| 20260509132034 | 77 | 196 | 3.0 | 9.0 | 0.00 | 0.00 | 0.00 | 88 | 1014.5 |
| 20260509131542 | 77 | 175 | 4.0 | 9.0 | 0.00 | 0.00 | 0.00 | 90 | 1014.6 |
| 20260509131034 | 76 | 175 | 1.0 | 5.0 | 0.00 | 0.00 | 0.00 | 92 | 1014.5 |
| 20260509130534 | 76 | 180 | 0.0 | 6.0 | 0.00 | 0.00 | 0.00 | 93 | 1014.4 |
| 20260509130044 | 75 | 130 | 2.0 | 6.0 | 0.00 | 0.00 | 0.00 | 94 | 1014.3 |
| 20260509125533 | 75 | 118 | 0.0 | 4.0 | 0.00 | 0.00 | 0.00 | 94 | 1014.4 |
| 20260509125035 | 74 | 196 | 0.0 | 5.0 | 0.00 | 0.00 | 0.00 | 94 | 1014.3 |
| 20260509124548 | 74 | 240 | 0.0 | 5.0 | 0.00 | 0.00 | 0.00 | 95 | 1014.3 |
| 20260509124035 | 73 | 142 | 2.0 | 5.0 | 0.00 | 0.00 | 0.00 | 95 | 1014.3 |
| 20260509123535 | 73 | 162 | 2.0 | 5.0 | 0.00 | 0.00 | 0.00 | 95 | 1014.2 |
| 20260509123056 | 72 | 173 | 2.0 | 5.0 | 0.00 | 0.00 | 0.00 | 95 | 1014.1 |
| 20260509122534 | 72 | 123 | 2.0 | 4.0 | 0.00 | 0.00 | 0.00 | 95 | 1014.0 |
| 20260509122034 | 72 | 118 | 2.0 | 4.0 | 0.00 | 0.00 | 0.00 | 95 | 1014.0 |
| 20260509121543 | 72 | 155 | 1.0 | 5.0 | 0.00 | 0.00 | 0.00 | 95 | 1013.8 |
| 20260509121035 | 71 | 155 | 1.0 | 5.0 | 0.00 | 0.00 | 0.00 | 95 | 1013.9 |
| 20260509120533 | 71 | 180 | 0.0 | 1.0 | 0.00 | 0.00 | 0.00 | 95 | 1013.9 |
| 20260509120045 | 71 | 0 | 0.0 | 0.0 | 0.00 | 0.00 | 0.00 | 95 | 1014.0 |
| 20260509115535 | 71 | 0 | 0.0 | 1.0 | 0.00 | 0.00 | 0.00 | 95 | 1013.9 |
| 20260509115034 | 70 | 0 | 0.0 | 1.0 | 0.00 | 0.00 | 0.00 | 95 | 1013.8 |
| 20260509114550 | 70 | 0 | 0.0 | 1.0 | 0.00 | 0.00 | 0.00 | 95 | 1013.8 |
| 20260509114056 | 70 | 0 | 0.0 | 0.0 | 0.00 | 0.00 | 0.00 | 95 | 1013.6 |
| 20260509113537 | 69 | 0 | 0.0 | 0.0 | 0.00 | 0.00 | 0.00 | 95 | 1013.5 |
| 20260509113047 | 68 | 0 | 0.0 | 0.0 | 0.00 | 0.00 | 0.00 | 95 | 1013.5 |
| 20260509112534 | 67 | 0 | 0.0 | 0.0 | 0.00 | 0.00 | 0.00 | 94 | 1013.5 |
| 20260509112035 | 67 | 0 | 0.0 | 0.0 | 0.00 | 0.00 | 0.00 | 94 | 1013.5 |
| 20260509111546 | 67 | 0 | 0.0 | 0.0 | 0.00 | 0.00 | 0.00 | 95 | 1013.4 |
| 20260509111035 | 67 | 0 | 0.0 | 0.0 | 0.00 | 0.00 | 0.00 | 94 | 1013.5 |
| 20260509110534 | 67 | 0 | 0.0 | 0.0 | 0.00 | 0.00 | 0.00 | 94 | 1013.5 |
| 20260509110045 | 67 | 0 | 0.0 | 0.0 | 0.00 | 0.00 | 0.00 | 94 | 1013.5 |
| 20260509105534 | 66 | 0 | 0.0 | 0.0 | 0.00 | 0.00 | 0.00 | 94 | 1013.5 |
| 20260509105035 | 67 | 0 | 0.0 | 0.0 | 0.00 | 0.00 | 0.00 | 94 | 1013.4 |
| 20260509104543 | 67 | 0 | 0.0 | 0.0 | 0.00 | 0.00 | 0.00 | 94 | 1013.6 |
| 20260509104037 | 67 | 0 | 0.0 | 0.0 | 0.00 | 0.00 | 0.00 | 94 | 1013.6 |
| 20260509103534 | 67 | 0 | 0.0 | 3.0 | 0.00 | 0.00 | 0.00 | 93 | 1013.5 |
| 20260509103050 | 67 | 0 | 0.0 | 4.0 | 0.00 | 0.00 | 0.00 | 94 | 1013.4 |
| 20260509102534 | 67 | 304 | 2.0 | 4.0 | 0.00 | 0.00 | 0.00 | 93 | 1013.5 |
| 20260509102035 | 68 | 126 | 1.0 | 2.0 | 0.00 | 0.00 | 0.00 | 94 | 1013.3 |
| 20260509101551 | 68 | 126 | 1.0 | 2.0 | 0.00 | 0.00 | 0.00 | 94 | 1013.3 |
| 20260509101037 | 68 | 0 | 0.0 | 0.0 | 0.00 | 0.00 | 0.00 | 94 | 1013.2 |
| 20260509100534 | 68 | 0 | 0.0 | 0.0 | 0.00 | 0.00 | 0.00 | 94 | 1013.2 |
| 20260509100049 | 68 | 0 | 0.0 | 1.0 | 0.00 | 0.00 | 0.00 | 94 | 1013.2 |
| 20260509095534 | 68 | 0 | 0.0 | 1.0 | 0.00 | 0.00 | 0.00 | 94 | 1013.2 |
| 20260509095036 | 68 | 0 | 0.0 | 2.0 | 0.00 | 0.00 | 0.00 | 94 | 1013.1 |
| 20260509094548 | 68 | 0 | 0.0 | 3.0 | 0.00 | 0.00 | 0.00 | 94 | 1013.2 |
| 20260509094033 | 69 | 0 | 0.0 | 3.0 | 0.00 | 0.00 | 0.00 | 94 | 1013.2 |
| 20260509093534 | 68 | 5 | 0.0 | 0.0 | 0.00 | 0.00 | 0.00 | 94 | 1013.3 |
| 20260509093047 | 68 | 0 | 0.0 | 0.0 | 0.00 | 0.00 | 0.00 | 94 | 1013.2 |
| 20260509092534 | 68 | 0 | 0.0 | 2.0 | 0.00 | 0.00 | 0.00 | 94 | 1013.2 |
| 20260509092034 | 68 | 0 | 0.0 | 2.0 | 0.00 | 0.00 | 0.00 | 94 | 1013.2 |
| 20260509091541 | 69 | 5 | 1.0 | 2.0 | 0.00 | 0.00 | 0.00 | 93 | 1013.3 |
| 20260509091036 | 69 | 0 | 0.0 | 2.0 | 0.00 | 0.00 | 0.00 | 93 | 1013.2 |
| 20260509090534 | 69 | 5 | 1.0 | 3.0 | 0.00 | 0.00 | 0.00 | 94 | 1013.2 |
| 20260509090054 | 69 | 5 | 1.0 | 3.0 | 0.00 | 0.00 | 0.00 | 94 | 1013.3 |
| 20260509085534 | 69 | 5 | 1.0 | 2.0 | 0.00 | 0.00 | 0.00 | 94 | 1013.3 |
| 20260509085034 | 69 | 5 | 1.0 | 3.0 | 0.00 | 0.00 | 0.00 | 93 | 1013.3 |
| 20260509084548 | 69 | 5 | 1.0 | 3.0 | 0.00 | 0.00 | 0.00 | 93 | 1013.3 |
| 20260509084034 | 69 | 278 | 1.0 | 2.0 | 0.00 | 0.00 | 0.00 | 93 | 1013.4 |
| 20260509083533 | 69 | 278 | 0.0 | 2.0 | 0.00 | 0.00 | 0.00 | 93 | 1013.4 |
| 20260509083051 | 69 | 0 | 0.0 | 1.0 | 0.00 | 0.00 | 0.00 | 93 | 1013.4 |
| 20260509082533 | 69 | 0 | 0.0 | 2.0 | 0.00 | 0.00 | 0.00 | 93 | 1013.4 |
| 20260509082037 | 69 | 278 | 0.0 | 3.0 | 0.00 | 0.00 | 0.00 | 93 | 1013.4 |
| 20260509081550 | 69 | 278 | 1.0 | 3.0 | 0.00 | 0.00 | 0.00 | 93 | 1013.4 |
| 20260509081035 | 69 | 271 | 2.0 | 3.0 | 0.00 | 0.00 | 0.00 | 93 | 1013.3 |
| 20260509080534 | 70 | 174 | 1.0 | 4.0 | 0.00 | 0.00 | 0.00 | 93 | 1013.3 |
| 20260509080048 | 70 | 0 | 0.0 | 4.0 | 0.00 | 0.00 | 0.00 | 93 | 1013.2 |
| 20260509075534 | 70 | 171 | 0.0 | 4.0 | 0.00 | 0.00 | 0.00 | 93 | 1013.1 |
| 20260509075033 | 69 | 121 | 0.0 | 2.0 | 0.00 | 0.00 | 0.00 | 93 | 1013.1 |
| 20260509074551 | 70 | 121 | 0.0 | 2.0 | 0.00 | 0.00 | 0.00 | 93 | 1013.1 |
| 20260509074036 | 69 | 121 | 0.0 | 2.0 | 0.00 | 0.00 | 0.00 | 93 | 1013.1 |
| 20260509073534 | 69 | 121 | 0.0 | 1.0 | 0.00 | 0.00 | 0.00 | 93 | 1013.1 |
| 20260509073046 | 70 | 0 | 0.0 | 1.0 | 0.00 | 0.00 | 0.00 | 93 | 1013.2 |
| 20260509072535 | 70 | 0 | 0.0 | 0.0 | 0.00 | 0.00 | 0.00 | 93 | 1013.2 |
| 20260509072036 | 70 | 0 | 0.0 | 0.0 | 0.00 | 0.00 | 0.00 | 93 | 1013.3 |
| 20260509071607 | 70 | 0 | 0.0 | 0.0 | 0.00 | 0.00 | 0.00 | 92 | 1013.3 |
| 20260509071035 | 70 | 0 | 0.0 | 0.0 | 0.00 | 0.00 | 0.00 | 92 | 1013.3 |
| 20260509070535 | 70 | 0 | 0.0 | 0.0 | 0.00 | 0.00 | 0.00 | 92 | 1013.4 |
| 20260509070046 | 70 | 0 | 0.0 | 2.0 | 0.00 | 0.00 | 0.00 | 92 | 1013.5 |
| 20260509065537 | 70 | 0 | 0.0 | 2.0 | 0.00 | 0.00 | 0.00 | 92 | 1013.5 |
| 20260509065034 | 70 | 121 | 1.0 | 2.0 | 0.00 | 0.00 | 0.00 | 92 | 1013.5 |
| 20260509064552 | 70 | 0 | 0.0 | 2.0 | 0.00 | 0.00 | 0.00 | 92 | 1013.5 |
| 20260509064037 | 70 | 131 | 0.0 | 0.0 | 0.00 | 0.00 | 0.00 | 92 | 1013.6 |
| 20260509063535 | 70 | 0 | 0.0 | 0.0 | 0.00 | 0.00 | 0.00 | 92 | 1013.6 |
| 20260509063053 | 70 | 0 | 0.0 | 2.0 | 0.00 | 0.00 | 0.00 | 92 | 1013.6 |
| 20260509062534 | 70 | 0 | 0.0 | 3.0 | 0.00 | 0.00 | 0.00 | 92 | 1013.7 |
| 20260509062035 | 71 | 0 | 1.0 | 4.0 | 0.00 | 0.00 | 0.00 | 92 | 1013.7 |
| 20260509061553 | 71 | 147 | 1.0 | 4.0 | 0.00 | 0.00 | 0.00 | 92 | 1013.7 |
| 20260509061034 | 71 | 146 | 1.0 | 4.0 | 0.00 | 0.00 | 0.00 | 92 | 1013.8 |
| 20260509060534 | 71 | 133 | 1.0 | 3.0 | 0.00 | 0.00 | 0.00 | 92 | 1013.9 |
| 20260509060048 | 71 | 69 | 1.0 | 3.0 | 0.00 | 0.00 | 0.00 | 92 | 1013.9 |
| 20260509055534 | 71 | 0 | 0.0 | 3.0 | 0.00 | 0.00 | 0.00 | 92 | 1013.9 |
| 20260509055037 | 71 | 95 | 2.0 | 3.0 | 0.00 | 0.00 | 0.00 | 92 | 1014.0 |
| 20260509054605 | 70 | 95 | 1.0 | 2.0 | 0.00 | 0.00 | 0.00 | 92 | 1014.1 |
| 20260509054032 | 70 | 94 | 1.0 | 2.0 | 0.00 | 0.00 | 0.00 | 91 | 1014.1 |
| 20260509053535 | 70 | 94 | 1.0 | 3.0 | 0.00 | 0.00 | 0.00 | 91 | 1014.2 |
| 20260509053105 | 70 | 94 | 1.0 | 3.0 | 0.00 | 0.00 | 0.00 | 90 | 1014.2 |
| 20260509052535 | 70 | 94 | 2.0 | 3.0 | 0.00 | 0.00 | 0.00 | 90 | 1014.2 |
| 20260509052033 | 70 | 0 | 0.0 | 0.0 | 0.00 | 0.00 | 0.00 | 90 | 1014.3 |
| 20260509051555 | 71 | 0 | 0.0 | 0.0 | 0.00 | 0.00 | 0.00 | 90 | 1014.3 |
| 20260509051037 | 71 | 0 | 0.0 | 0.0 | 0.00 | 0.00 | 0.00 | 90 | 1014.3 |
| 20260509050536 | 71 | 0 | 0.0 | 2.0 | 0.00 | 0.00 | 0.00 | 90 | 1014.4 |
| 20260509050051 | 71 | 0 | 0.0 | 3.0 | 0.00 | 0.00 | 0.00 | 90 | 1014.5 |
| 20260509045533 | 71 | 94 | 1.0 | 3.0 | 0.00 | 0.00 | 0.00 | 90 | 1014.5 |
| 20260509045035 | 71 | 126 | 0.0 | 2.0 | 0.00 | 0.00 | 0.00 | 91 | 1014.6 |
| 20260509044545 | 71 | 0 | 0.0 | 3.0 | 0.00 | 0.00 | 0.00 | 91 | 1014.6 |
| 20260509044033 | 71 | 0 | 1.0 | 5.0 | 0.00 | 0.00 | 0.00 | 91 | 1014.5 |
| 20260509043532 | 71 | 145 | 1.0 | 5.0 | 0.00 | 0.00 | 0.00 | 91 | 1014.5 |
| 20260509043059 | 71 | 0 | 0.0 | 4.0 | 0.00 | 0.00 | 0.00 | 90 | 1014.6 |
| 20260509042533 | 71 | 204 | 2.0 | 4.0 | 0.00 | 0.00 | 0.00 | 90 | 1014.6 |
| 20260509042034 | 71 | 213 | 0.0 | 5.0 | 0.00 | 0.00 | 0.00 | 90 | 1014.6 |
| 20260509041551 | 71 | 164 | 1.0 | 5.0 | 0.00 | 0.00 | 0.00 | 90 | 1014.5 |
| 20260509041035 | 71 | 198 | 2.0 | 5.0 | 0.00 | 0.00 | 0.00 | 90 | 1014.6 |
| 20260509040532 | 71 | 140 | 1.0 | 4.0 | 0.00 | 0.00 | 0.00 | 89 | 1014.4 |
| 20260509040054 | 71 | 140 | 2.0 | 4.0 | 0.00 | 0.00 | 0.00 | 89 | 1014.3 |
| 20260509035534 | 71 | 157 | 2.0 | 4.0 | 0.00 | 0.00 | 0.00 | 89 | 1014.4 |
| 20260509035033 | 71 | 153 | 1.0 | 4.0 | 0.00 | 0.00 | 0.00 | 89 | 1014.4 |
| 20260509034552 | 71 | 0 | 1.0 | 3.0 | 0.00 | 0.00 | 0.00 | 89 | 1014.4 |
| 20260509034034 | 71 | 153 | 0.0 | 0.0 | 0.00 | 0.00 | 0.00 | 89 | 1014.4 |
| 20260509033535 | 71 | 0 | 0.0 | 0.0 | 0.00 | 0.00 | 0.00 | 88 | 1014.4 |
| 20260509033048 | 72 | 0 | 0.0 | 0.0 | 0.00 | 0.00 | 0.00 | 88 | 1014.4 |
| 20260509032533 | 72 | 0 | 0.0 | 0.0 | 0.00 | 0.00 | 0.00 | 88 | 1014.4 |
| 20260509032038 | 72 | 0 | 0.0 | 0.0 | 0.00 | 0.00 | 0.00 | 88 | 1014.4 |
| 20260509031615 | 72 | 0 | 0.0 | 0.0 | 0.00 | 0.00 | 0.00 | 88 | 1014.4 |
| 20260509031033 | 72 | 0 | 0.0 | 0.0 | 0.00 | 0.00 | 0.00 | 88 | 1014.4 |
| 20260509030533 | 73 | 0 | 0.0 | 0.0 | 0.00 | 0.00 | 0.00 | 87 | 1014.3 |
| 20260509030046 | 73 | 0 | 0.0 | 0.0 | 0.00 | 0.00 | 0.00 | 87 | 1014.3 |
| 20260509025532 | 73 | 0 | 0.0 | 0.0 | 0.00 | 0.00 | 0.00 | 87 | 1014.3 |
| 20260509025032 | 73 | 0 | 0.0 | 1.0 | 0.00 | 0.00 | 0.00 | 87 | 1014.3 |
| 20260509024543 | 73 | 0 | 0.0 | 2.0 | 0.00 | 0.00 | 0.00 | 86 | 1014.3 |
| 20260509024033 | 74 | 0 | 0.0 | 3.0 | 0.00 | 0.00 | 0.00 | 87 | 1014.4 |
| 20260509023536 | 74 | 94 | 0.0 | 4.0 | 0.00 | 0.00 | 0.00 | 87 | 1014.3 |
| 20260509023044 | 74 | 107 | 1.0 | 4.0 | 0.00 | 0.00 | 0.00 | 87 | 1014.2 |
| 20260509022535 | 74 | 107 | 2.0 | 4.0 | 0.00 | 0.00 | 0.00 | 87 | 1014.1 |
| 20260509022036 | 74 | 105 | 2.0 | 7.0 | 0.00 | 0.00 | 0.00 | 87 | 1014.2 |
| 20260509021544 | 74 | 77 | 2.0 | 7.0 | 0.00 | 0.00 | 0.00 | 87 | 1014.1 |
| 20260509021033 | 74 | 86 | 2.0 | 7.0 | 0.00 | 0.00 | 0.00 | 87 | 1014.1 |
| 20260509020533 | 74 | 69 | 2.0 | 6.0 | 0.00 | 0.00 | 0.00 | 87 | 1013.9 |
| 20260509020046 | 74 | 83 | 3.0 | 6.0 | 0.00 | 0.00 | 0.00 | 86 | 1014.0 |
| 20260509015533 | 74 | 74 | 3.0 | 6.0 | 0.00 | 0.00 | 0.00 | 86 | 1013.9 |
| 20260509015034 | 74 | 73 | 3.0 | 5.0 | 0.00 | 0.00 | 0.00 | 86 | 1013.9 |
| 20260509014545 | 74 | 76 | 2.0 | 4.0 | 0.00 | 0.00 | 0.00 | 86 | 1013.9 |
| 20260509014033 | 74 | 76 | 2.0 | 3.0 | 0.00 | 0.00 | 0.00 | 86 | 1013.8 |
| 20260509013533 | 74 | 81 | 1.0 | 3.0 | 0.00 | 0.00 | 0.00 | 85 | 1013.8 |
| 20260509013050 | 74 | 78 | 1.0 | 3.0 | 0.00 | 0.00 | 0.00 | 85 | 1013.9 |
| 20260509012532 | 75 | 78 | 1.0 | 3.0 | 0.00 | 0.00 | 0.00 | 85 | 1013.8 |
| 20260509012033 | 75 | 78 | 1.0 | 3.0 | 0.00 | 0.00 | 0.00 | 85 | 1013.8 |
| 20260509011548 | 75 | 78 | 1.0 | 4.0 | 0.00 | 0.00 | 0.00 | 85 | 1013.8 |
| 20260509011032 | 75 | 103 | 1.0 | 4.0 | 0.00 | 0.00 | 0.00 | 84 | 1013.7 |
| 20260509010532 | 75 | 74 | 2.0 | 5.0 | 0.00 | 0.00 | 0.00 | 85 | 1013.8 |
| 20260509010044 | 75 | 86 | 2.0 | 5.0 | 0.00 | 0.00 | 0.00 | 84 | 1013.7 |
| 20260509005536 | 75 | 65 | 2.0 | 5.0 | 0.00 | 0.00 | 0.00 | 84 | 1013.6 |
| 20260509005035 | 76 | 67 | 2.0 | 5.0 | 0.00 | 0.00 | 0.00 | 84 | 1013.6 |
| 20260509004552 | 76 | 63 | 2.0 | 5.0 | 0.00 | 0.00 | 0.00 | 83 | 1013.4 |
| 20260509004034 | 76 | 71 | 2.0 | 7.0 | 0.00 | 0.00 | 0.00 | 83 | 1013.3 |
| 20260509003535 | 76 | 71 | 4.0 | 7.0 | 0.00 | 0.00 | 0.00 | 83 | 1013.2 |
| 20260509003047 | 76 | 70 | 3.0 | 7.0 | 0.00 | 0.00 | 0.00 | 82 | 1013.0 |
| 20260509002534 | 77 | 59 | 3.0 | 7.0 | 0.00 | 0.00 | 0.00 | 82 | 1013.0 |
| 20260509002036 | 77 | 74 | 3.0 | 6.0 | 0.00 | 0.00 | 0.00 | 81 | 1012.9 |
| 20260509001545 | 77 | 72 | 3.0 | 7.0 | 0.00 | 0.00 | 0.00 | 81 | 1012.8 |
| 20260509001035 | 78 | 64 | 3.0 | 8.0 | 0.00 | 0.00 | 0.00 | 80 | 1012.7 |
| 20260509000532 | 78 | 65 | 4.0 | 9.0 | 0.00 | 0.00 | 0.00 | 79 | 1012.5 |
| 20260509000104 | 79 | 74 | 4.0 | 10.0 | 0.00 | 0.00 | 0.00 | 79 | 1012.5 |
| 20260508235538 | 79 | 78 | 5.0 | 11.0 | 0.00 | 0.00 | 0.00 | 78 | 1012.5 |
| 20260508235036 | 80 | 71 | 5.0 | 11.0 | 0.00 | 0.00 | 0.00 | 77 | 1012.4 |
| 20260508234547 | 80 | 76 | 7.0 | 11.0 | 0.00 | 0.00 | 0.00 | 77 | 1012.4 |
| 20260508234038 | 80 | 78 | 4.0 | 10.0 | 0.00 | 0.00 | 0.00 | 77 | 1012.3 |
| 20260508233534 | 80 | 69 | 6.0 | 10.0 | 0.00 | 0.00 | 0.00 | 77 | 1012.4 |
| 20260508233050 | 81 | 96 | 4.0 | 9.0 | 0.00 | 0.00 | 0.00 | 77 | 1012.2 |
| 20260508232537 | 81 | 74 | 5.0 | 11.0 | 0.00 | 0.00 | 0.00 | 77 | 1012.4 |
| 20260508232034 | 81 | 59 | 4.0 | 11.0 | 0.00 | 0.00 | 0.00 | 76 | 1012.3 |
| 20260508231555 | 81 | 76 | 5.0 | 11.0 | 0.00 | 0.00 | 0.00 | 76 | 1012.2 |
| 20260508231034 | 82 | 65 | 6.0 | 11.0 | 0.00 | 0.00 | 0.00 | 76 | 1012.2 |
| 20260508230533 | 82 | 79 | 7.0 | 11.0 | 0.00 | 0.00 | 0.00 | 75 | 1012.2 |
| 20260508230046 | 82 | 46 | 6.0 | 10.0 | 0.00 | 0.00 | 0.00 | 75 | 1012.1 |
| 20260508225535 | 82 | 50 | 5.0 | 10.0 | 0.00 | 0.00 | 0.00 | 74 | 1012.1 |
| 20260508225035 | 83 | 74 | 7.0 | 10.0 | 0.00 | 0.00 | 0.00 | 73 | 1012.0 |
| 20260508224550 | 83 | 54 | 7.0 | 10.0 | 0.00 | 0.00 | 0.00 | 73 | 1012.0 |
| 20260508224033 | 83 | 53 | 6.0 | 13.0 | 0.00 | 0.00 | 0.00 | 72 | 1012.0 |
| 20260508223533 | 83 | 91 | 6.0 | 14.0 | 0.00 | 0.00 | 0.00 | 72 | 1012.0 |
| 20260508223043 | 83 | 65 | 9.0 | 14.0 | 0.00 | 0.00 | 0.00 | 71 | 1012.0 |
| 20260508222534 | 83 | 74 | 8.0 | 11.0 | 0.00 | 0.00 | 0.00 | 71 | 1012.0 |
| 20260508222035 | 83 | 101 | 7.0 | 12.0 | 0.00 | 0.00 | 0.00 | 71 | 1012.0 |
| 20260508221544 | 83 | 64 | 7.0 | 12.0 | 0.00 | 0.00 | 0.00 | 71 | 1011.9 |
| 20260508221035 | 83 | 111 | 6.0 | 12.0 | 0.00 | 0.00 | 0.00 | 71 | 1011.9 |
| 20260508220535 | 84 | 111 | 8.0 | 12.0 | 0.00 | 0.00 | 0.00 | 70 | 1011.9 |
| 20260508220050 | 84 | 78 | 7.0 | 14.0 | 0.00 | 0.00 | 0.00 | 71 | 1012.0 |
| 20260508215534 | 84 | 76 | 8.0 | 14.0 | 0.00 | 0.00 | 0.00 | 71 | 1012.1 |
| 20260508215034 | 84 | 57 | 7.0 | 12.0 | 0.00 | 0.00 | 0.00 | 71 | 1012.0 |
| 20260508214606 | 84 | 101 | 7.0 | 14.0 | 0.00 | 0.00 | 0.00 | 70 | 1012.0 |
| 20260508214033 | 84 | 94 | 7.0 | 14.0 | 0.00 | 0.00 | 0.00 | 72 | 1012.1 |
| 20260508213535 | 84 | 49 | 9.0 | 14.0 | 0.00 | 0.00 | 0.00 | 72 | 1011.9 |
| 20260508213101 | 84 | 66 | 8.0 | 14.0 | 0.00 | 0.00 | 0.00 | 71 | 1012.0 |
| 20260508212533 | 84 | 89 | 8.0 | 13.0 | 0.00 | 0.00 | 0.00 | 71 | 1012.0 |
| 20260508212037 | 85 | 88 | 8.0 | 12.0 | 0.00 | 0.00 | 0.00 | 70 | 1012.0 |
| 20260508211545 | 85 | 50 | 6.0 | 12.0 | 0.00 | 0.00 | 0.00 | 71 | 1012.1 |
| 20260508211034 | 84 | 46 | 8.0 | 14.0 | 0.00 | 0.00 | 0.00 | 71 | 1012.1 |
| 20260508210534 | 84 | 63 | 8.0 | 15.0 | 0.00 | 0.00 | 0.00 | 70 | 1012.1 |
| 20260508210048 | 85 | 38 | 9.0 | 15.0 | 0.00 | 0.00 | 0.00 | 70 | 1012.1 |
| 20260508205534 | 85 | 72 | 10.0 | 14.0 | 0.00 | 0.00 | 0.00 | 71 | 1012.1 |
| 20260508205034 | 85 | 78 | 7.0 | 13.0 | 0.00 | 0.00 | 0.00 | 70 | 1012.2 |
| 20260508204551 | 85 | 65 | 7.0 | 13.0 | 0.00 | 0.00 | 0.00 | 69 | 1012.2 |
| 20260508204034 | 85 | 143 | 7.0 | 13.0 | 0.00 | 0.00 | 0.00 | 70 | 1012.2 |
| 20260508203534 | 85 | 70 | 7.0 | 13.0 | 0.00 | 0.00 | 0.00 | 70 | 1012.3 |
| 20260508203050 | 85 | 35 | 8.0 | 14.0 | 0.00 | 0.00 | 0.00 | 70 | 1012.3 |
| 20260508202533 | 85 | 29 | 8.0 | 14.0 | 0.00 | 0.00 | 0.00 | 70 | 1012.4 |
| 20260508202035 | 85 | 69 | 7.0 | 15.0 | 0.00 | 0.00 | 0.00 | 69 | 1012.4 |
| 20260508201556 | 85 | 46 | 9.0 | 16.0 | 0.00 | 0.00 | 0.00 | 70 | 1012.4 |
| 20260508201034 | 85 | 59 | 11.0 | 16.0 | 0.00 | 0.00 | 0.00 | 70 | 1012.4 |
| 20260508200533 | 85 | 34 | 9.0 | 14.0 | 0.00 | 0.00 | 0.00 | 70 | 1012.5 |
| 20260508200100 | 86 | 90 | 7.0 | 16.0 | 0.00 | 0.00 | 0.00 | 69 | 1012.5 |
| 20260508195534 | 86 | 355 | 9.0 | 18.0 | 0.00 | 0.00 | 0.00 | 70 | 1012.6 |
| 20260508195035 | 86 | 72 | 9.0 | 18.0 | 0.00 | 0.00 | 0.00 | 69 | 1012.7 |
| 20260508194548 | 86 | 84 | 9.0 | 16.0 | 0.00 | 0.00 | 0.00 | 69 | 1012.8 |
| 20260508194032 | 86 | 74 | 10.0 | 16.0 | 0.00 | 0.00 | 0.00 | 68 | 1012.9 |
| 20260508193532 | 87 | 48 | 10.0 | 15.0 | 0.00 | 0.00 | 0.00 | 69 | 1012.9 |
| 20260508193053 | 88 | 69 | 8.0 | 14.0 | 0.00 | 0.00 | 0.00 | 65 | 1013.0 |
| 20260508192533 | 89 | 292 | 6.0 | 11.0 | 0.00 | 0.00 | 0.00 | 54 | 1013.2 |
| 20260508192035 | 89 | 277 | 3.0 | 8.0 | 0.00 | 0.00 | 0.00 | 58 | 1013.3 |
| 20260508191545 | 89 | 298 | 2.0 | 6.0 | 0.00 | 0.00 | 0.00 | 57 | 1013.3 |
| 20260508191036 | 88 | 306 | 2.0 | 5.0 | 0.00 | 0.00 | 0.00 | 57 | 1013.4 |
| 20260508190535 | 88 | 280 | 1.0 | 7.0 | 0.00 | 0.00 | 0.00 | 56 | 1013.6 |
| 20260508190051 | 88 | 34 | 2.0 | 7.0 | 0.00 | 0.00 | 0.00 | 57 | 1013.7 |
| 20260508185532 | 89 | 11 | 3.0 | 5.0 | 0.00 | 0.00 | 0.00 | 55 | 1013.7 |
| 20260508185034 | 88 | 74 | 0.0 | 8.0 | 0.00 | 0.00 | 0.00 | 59 | 1013.8 |
| 20260508184547 | 87 | 273 | 4.0 | 8.0 | 0.00 | 0.00 | 0.00 | 60 | 1013.8 |
| 20260508184032 | 87 | 275 | 4.0 | 13.0 | 0.00 | 0.00 | 0.00 | 60 | 1014.0 |
| 20260508183535 | 87 | 264 | 4.0 | 13.0 | 0.00 | 0.00 | 0.00 | 59 | 1014.1 |
| 20260508183046 | 87 | 290 | 5.0 | 8.0 | 0.00 | 0.00 | 0.00 | 59 | 1014.1 |
| 20260508182533 | 88 | 48 | 2.0 | 7.0 | 0.00 | 0.00 | 0.00 | 59 | 1014.2 |
| 20260508182032 | 88 | 355 | 2.0 | 6.0 | 0.00 | 0.00 | 0.00 | 58 | 1014.1 |
| 20260508181608 | 88 | 283 | 2.0 | 8.0 | 0.00 | 0.00 | 0.00 | 58 | 1014.2 |
| 20260508181036 | 87 | 161 | 2.0 | 11.0 | 0.00 | 0.00 | 0.00 | 59 | 1014.2 |
| 20260508180534 | 87 | 277 | 3.0 | 11.0 | 0.00 | 0.00 | 0.00 | 59 | 1014.3 |
| 20260508175532 | 87 | 319 | 1.0 | 9.0 | 0.00 | 0.00 | 0.00 | 59 | 1014.4 |
| 20260508175035 | 87 | 325 | 5.0 | 9.0 | 0.00 | 0.00 | 0.00 | 60 | 1014.3 |
| 20260508174542 | 87 | 346 | 2.0 | 12.0 | 0.00 | 0.00 | 0.00 | 59 | 1014.4 |
| 20260508174033 | 87 | 5 | 6.0 | 12.0 | 0.00 | 0.00 | 0.00 | 59 | 1014.6 |
| 20260508173533 | 87 | 250 | 1.0 | 9.0 | 0.00 | 0.00 | 0.00 | 62 | 1014.7 |
| 20260508173048 | 86 | 11 | 4.0 | 9.0 | 0.00 | 0.00 | 0.00 | 60 | 1014.8 |
| 20260508172534 | 86 | 5 | 5.0 | 9.0 | 0.00 | 0.00 | 0.00 | 61 | 1014.7 |
| 20260508172035 | 86 | 302 | 2.0 | 9.0 | 0.00 | 0.00 | 0.00 | 62 | 1014.7 |
| 20260508171546 | 86 | 296 | 5.0 | 9.0 | 0.00 | 0.00 | 0.00 | 62 | 1014.8 |
| 20260508171035 | 86 | 344 | 3.0 | 7.0 | 0.00 | 0.00 | 0.00 | 62 | 1014.9 |
| 20260508170533 | 86 | 231 | 1.0 | 6.0 | 0.00 | 0.00 | 0.00 | 64 | 1015.0 |
| 20260508170049 | 86 | 48 | 2.0 | 6.0 | 0.00 | 0.00 | 0.00 | 64 | 1015.1 |
| 20260508165535 | 86 | 62 | 1.0 | 6.0 | 0.00 | 0.00 | 0.00 | 65 | 1015.1 |
| 20260508165033 | 86 | 265 | 2.0 | 7.0 | 0.00 | 0.00 | 0.00 | 64 | 1015.2 |
| 20260508164545 | 85 | 205 | 3.0 | 10.0 | 0.00 | 0.00 | 0.00 | 65 | 1015.4 |
| 20260508164033 | 84 | 246 | 6.0 | 10.0 | 0.00 | 0.00 | 0.00 | 63 | 1015.5 |
| 20260508163537 | 84 | 288 | 2.0 | 8.0 | 0.00 | 0.00 | 0.00 | 69 | 1015.5 |
| 20260508163043 | 84 | 355 | 4.0 | 8.0 | 0.00 | 0.00 | 0.00 | 68 | 1015.6 |
| 20260508162532 | 84 | 304 | 4.0 | 9.0 | 0.00 | 0.00 | 0.00 | 68 | 1015.6 |
| 20260508162034 | 84 | 303 | 3.0 | 9.0 | 0.00 | 0.00 | 0.00 | 68 | 1015.7 |
| 20260508161547 | 84 | 235 | 3.0 | 9.0 | 0.00 | 0.00 | 0.00 | 71 | 1015.7 |
| 20260508161033 | 83 | 11 | 2.0 | 10.0 | 0.00 | 0.00 | 0.00 | 71 | 1015.9 |
| 20260508160533 | 83 | 292 | 5.0 | 10.0 | 0.00 | 0.00 | 0.00 | 73 | 1015.9 |
| 20260508160048 | 83 | 301 | 3.0 | 10.0 | 0.00 | 0.00 | 0.00 | 71 | 1015.9 |
| 20260508155533 | 83 | 120 | 2.0 | 9.0 | 0.00 | 0.00 | 0.00 | 70 | 1016.0 |
| 20260508155033 | 83 | 276 | 4.0 | 9.0 | 0.00 | 0.00 | 0.00 | 73 | 1016.0 |
| 20260508154556 | 83 | 296 | 4.0 | 9.0 | 0.00 | 0.00 | 0.00 | 72 | 1016.0 |
| 20260508154034 | 82 | 315 | 1.0 | 9.0 | 0.00 | 0.00 | 0.00 | 73 | 1016.0 |
| 20260508153533 | 82 | 342 | 4.0 | 9.0 | 0.00 | 0.00 | 0.00 | 75 | 1016.1 |
| 20260508153047 | 81 | 31 | 3.0 | 8.0 | 0.00 | 0.00 | 0.00 | 75 | 1016.1 |
| 20260508152533 | 80 | 334 | 2.0 | 8.0 | 0.00 | 0.00 | 0.00 | 76 | 1016.2 |
| 20260508152032 | 80 | 285 | 6.0 | 9.0 | 0.00 | 0.00 | 0.00 | 77 | 1016.2 |
| 20260508151554 | 80 | 246 | 2.0 | 9.0 | 0.00 | 0.00 | 0.00 | 76 | 1016.2 |
| 20260508151033 | 80 | 302 | 5.0 | 9.0 | 0.00 | 0.00 | 0.00 | 76 | 1016.2 |
| 20260508150537 | 80 | 290 | 2.0 | 8.0 | 0.00 | 0.00 | 0.00 | 78 | 1016.2 |
| 20260508150052 | 79 | 298 | 5.0 | 8.0 | 0.00 | 0.00 | 0.00 | 79 | 1016.3 |
| 20260508145532 | 79 | 292 | 4.0 | 10.0 | 0.00 | 0.00 | 0.00 | 78 | 1016.3 |